| time (UTC) | temp F | wind direction | speed MPH | gust MPH | rain 1hr in | rain 24hr in | rain mn in | humidity % | barometer mb |
| 20260905054824 | 70 | 256 | 1.0 | 1.0 | 0.00 | 0.00 | 0.00 | 40 | 1020.3 |
| 20260905053824 | 70 | 230 | 1.0 | 1.0 | 0.00 | 0.00 | 0.00 | 40 | 1020.3 |
| 20260905052825 | 70 | 280 | 1.0 | 2.0 | 0.00 | 0.00 | 0.00 | 40 | 1020.3 |
| 20260905051825 | 70 | 243 | 1.0 | 2.0 | 0.00 | 0.00 | 0.00 | 41 | 1020.4 |
| 20260905050825 | 71 | 227 | 1.0 | 1.0 | 0.00 | 0.00 | 0.00 | 40 | 1020.5 |
| 20260905045846 | 72 | 287 | 2.0 | 3.0 | 0.00 | 0.00 | 0.00 | 40 | 1020.5 |
| 20260905044825 | 72 | 310 | 2.0 | 3.0 | 0.00 | 0.00 | 0.00 | 39 | 1020.5 |
| 20260905043825 | 72 | 314 | 2.0 | 2.0 | 0.00 | 0.00 | 0.00 | 39 | 1020.5 |
| 20260905042825 | 72 | 324 | 2.0 | 3.0 | 0.00 | 0.00 | 0.00 | 39 | 1020.5 |
| 20260905041826 | 73 | 357 | 3.0 | 3.0 | 0.00 | 0.00 | 0.00 | 38 | 1020.5 |
| 20260905040826 | 74 | 357 | 2.0 | 2.0 | 0.00 | 0.00 | 0.00 | 37 | 1020.5 |
| 20260905035842 | 0 | 16 | 4.0 | 5.0 | 0.00 | 0.00 | 0.00 | ||
| 20260905034822 | 0 | 2 | 5.0 | 6.0 | 0.00 | 0.00 | 0.00 | ||
| 20260905033826 | 76 | 12 | 4.0 | 4.0 | 0.00 | 0.00 | 0.00 | 34 | 1020.7 |
| 20260905032822 | 0 | 9 | 3.0 | 4.0 | 0.00 | 0.00 | 0.00 | ||
| 20260905031822 | 76 | 356 | 4.0 | 4.0 | 0.00 | 0.00 | 0.00 | 35 | 1020.6 |
| 20260905030827 | 76 | 349 | 3.0 | 3.0 | 0.00 | 0.00 | 0.00 | 34 | 1020.5 |
| 20260905025839 | 76 | 3 | 3.0 | 3.0 | 0.00 | 0.00 | 0.00 | 35 | 1020.4 |
| 20260905024838 | 78 | 360 | 3.0 | 3.0 | 0.00 | 0.00 | 0.00 | 35 | 1020.2 |
| 20260905023840 | 78 | 360 | 3.0 | 4.0 | 0.00 | 0.00 | 0.00 | 33 | 1020.1 |
| 20260905022828 | 78 | 350 | 2.0 | 2.0 | 0.00 | 0.00 | 0.00 | 33 | 1020.0 |
| 20260905021828 | 78 | 8 | 3.0 | 3.0 | 0.00 | 0.00 | 0.00 | 34 | 1020.0 |
| 20260905020848 | 77 | 342 | 1.0 | 2.0 | 0.00 | 0.00 | 0.00 | 34 | 1019.9 |
| 20260905015829 | 77 | 311 | 1.0 | 2.0 | 0.00 | 0.00 | 0.00 | 35 | 1019.8 |
| 20260905014848 | 78 | 296 | 1.0 | 1.0 | 0.00 | 0.00 | 0.00 | 34 | 1019.8 |
| 20260905013828 | 78 | 330 | 1.0 | 2.0 | 0.00 | 0.00 | 0.00 | 33 | 1019.7 |
| 20260905012829 | 78 | 345 | 2.0 | 2.0 | 0.00 | 0.00 | 0.00 | 33 | 1019.6 |
| 20260905011829 | 79 | 340 | 1.0 | 2.0 | 0.00 | 0.00 | 0.00 | 33 | 1019.6 |
| 20260905010829 | 80 | 348 | 2.0 | 2.0 | 0.00 | 0.00 | 0.00 | 33 | 1019.5 |
| 20260905005829 | 81 | 355 | 2.0 | 2.0 | 0.00 | 0.00 | 0.00 | 32 | 1019.4 |
| 20260905004819 | 82 | 4 | 2.0 | 3.0 | 0.00 | 0.00 | 0.00 | 31 | 1019.5 |
| 20260905003830 | 83 | 13 | 3.0 | 4.0 | 0.00 | 0.00 | 0.00 | 29 | 1019.4 |
| 20260905002829 | 83 | 7 | 4.0 | 7.0 | 0.00 | 0.00 | 0.00 | 29 | 1019.4 |
| 20260905001830 | 84 | 49 | 3.0 | 4.0 | 0.00 | 0.00 | 0.00 | 29 | 1019.3 |
| 20260905000819 | 0 | 25 | 4.0 | 4.0 | 0.00 | 0.00 | 0.00 | ||
| 20260904235830 | 85 | 20 | 7.0 | 9.0 | 0.00 | 0.00 | 0.00 | 26 | 1019.1 |
| 20260904234831 | 86 | 18 | 4.0 | 5.0 | 0.00 | 0.00 | 0.00 | 26 | 1019.1 |
| 20260904233831 | 86 | 19 | 5.0 | 7.0 | 0.00 | 0.00 | 0.00 | 26 | 1019.0 |
| 20260904232851 | 87 | 74 | 3.0 | 5.0 | 0.00 | 0.00 | 0.00 | 24 | 1018.9 |
| 20260904231848 | 87 | 175 | 2.0 | 3.0 | 0.00 | 0.00 | 0.00 | 22 | 1018.8 |
| 20260904230831 | 88 | 55 | 1.0 | 2.0 | 0.00 | 0.00 | 0.00 | 22 | 1018.8 |
| 20260904225848 | 89 | 30 | 4.0 | 4.0 | 0.00 | 0.00 | 0.00 | 22 | 1018.9 |
| 20260904224831 | 89 | 170 | 2.0 | 4.0 | 0.00 | 0.00 | 0.00 | 22 | 1018.9 |
| 20260904223839 | 88 | 88 | 2.0 | 3.0 | 0.00 | 0.00 | 0.00 | 21 | 1018.8 |
| 20260904222831 | 88 | 133 | 3.0 | 4.0 | 0.00 | 0.00 | 0.00 | 22 | 1018.8 |
| 20260904221832 | 88 | 133 | 3.0 | 5.0 | 0.00 | 0.00 | 0.00 | 22 | 1018.8 |
| 20260904220832 | 88 | 128 | 5.0 | 8.0 | 0.00 | 0.00 | 0.00 | 23 | 1018.9 |
| 20260904215832 | 88 | 110 | 5.0 | 7.0 | 0.00 | 0.00 | 0.00 | 22 | 1019.0 |
| 20260904214832 | 87 | 199 | 2.0 | 2.0 | 0.00 | 0.00 | 0.00 | 23 | 1019.0 |
| 20260904213833 | 87 | 147 | 2.0 | 3.0 | 0.00 | 0.00 | 0.00 | 22 | 1019.1 |
| 20260904212847 | 87 | 161 | 5.0 | 9.0 | 0.00 | 0.00 | 0.00 | 23 | 1019.1 |
| 20260904211833 | 88 | 57 | 4.0 | 7.0 | 0.00 | 0.00 | 0.00 | 23 | 1019.2 |
| 20260904210833 | 87 | 126 | 3.0 | 4.0 | 0.00 | 0.00 | 0.00 | 22 | 1019.4 |
| 20260904205843 | 0 | 42 | 3.0 | 4.0 | 0.00 | 0.00 | 0.00 | ||
| 20260904204923 | 0 | 32 | 4.0 | 6.0 | 0.00 | 0.00 | 0.00 | ||
| 20260904203823 | 0 | 28 | 6.0 | 8.0 | 0.00 | 0.00 | 0.00 | ||
| 20260904202823 | 0 | 113 | 3.0 | 4.0 | 0.00 | 0.00 | 0.00 | ||
| 20260904201817 | 86 | 29 | 4.0 | 7.0 | 0.00 | 0.00 | 0.00 | 25 | 1019.8 |
| 20260904200817 | 86 | 44 | 3.0 | 5.0 | 0.00 | 0.00 | 0.00 | 24 | 1019.8 |
| 20260904195817 | 86 | 44 | 6.0 | 8.0 | 0.00 | 0.00 | 0.00 | 23 | 1020.0 |
| 20260904194824 | 0 | 48 | 5.0 | 8.0 | 0.00 | 0.00 | 0.00 | ||
| 20260904193824 | 0 | 26 | 5.0 | 7.0 | 0.00 | 0.00 | 0.00 | ||
| 20260904192818 | 86 | 128 | 2.0 | 4.0 | 0.00 | 0.00 | 0.00 | 23 | 1020.1 |
| 20260904191818 | 85 | 107 | 4.0 | 7.0 | 0.00 | 0.00 | 0.00 | 23 | 1020.2 |
| 20260904190818 | 85 | 86 | 6.0 | 9.0 | 0.00 | 0.00 | 0.00 | 23 | 1020.2 |
| 20260904185818 | 85 | 159 | 3.0 | 4.0 | 0.00 | 0.00 | 0.00 | 25 | 1020.3 |
| 20260904184818 | 84 | 114 | 6.0 | 9.0 | 0.00 | 0.00 | 0.00 | 24 | 1020.3 |
| 20260904183859 | 84 | 20 | 6.0 | 8.0 | 0.00 | 0.00 | 0.00 | 24 | 1020.4 |
| 20260904182819 | 84 | 127 | 5.0 | 9.0 | 0.00 | 0.00 | 0.00 | 24 | 1020.5 |
| 20260904181819 | 84 | 136 | 5.0 | 8.0 | 0.00 | 0.00 | 0.00 | 24 | 1020.6 |
| 20260904180819 | 84 | 111 | 7.0 | 9.0 | 0.00 | 0.00 | 0.00 | 24 | 1020.7 |
| 20260904175830 | 83 | 128 | 5.0 | 7.0 | 0.00 | 0.00 | 0.00 | 24 | 1020.7 |
| 20260904174830 | 83 | 136 | 4.0 | 7.0 | 0.00 | 0.00 | 0.00 | 25 | 1020.8 |
| 20260904173830 | 82 | 124 | 5.0 | 6.0 | 0.00 | 0.00 | 0.00 | 25 | 1020.9 |
| 20260904172909 | 82 | 121 | 7.0 | 9.0 | 0.00 | 0.00 | 0.00 | 26 | 1020.9 |
| 20260904171830 | 83 | 126 | 5.0 | 8.0 | 0.00 | 0.00 | 0.00 | 26 | 1020.9 |
| 20260904170831 | 82 | 41 | 5.0 | 9.0 | 0.00 | 0.00 | 0.00 | 25 | 1020.9 |
| 20260904165827 | 82 | 106 | 5.0 | 8.0 | 0.00 | 0.00 | 0.00 | 27 | 1020.9 |
| 20260904164830 | 81 | 136 | 4.0 | 6.0 | 0.00 | 0.00 | 0.00 | 26 | 1020.9 |
| 20260904163851 | 81 | 150 | 4.0 | 6.0 | 0.00 | 0.00 | 0.00 | 29 | 1020.8 |
| 20260904162831 | 80 | 122 | 4.0 | 5.0 | 0.00 | 0.00 | 0.00 | 30 | 1020.9 |
| 20260904161851 | 80 | 111 | 3.0 | 4.0 | 0.00 | 0.00 | 0.00 | 29 | 1020.9 |
| 20260904160831 | 80 | 106 | 5.0 | 7.0 | 0.00 | 0.00 | 0.00 | 28 | 1020.9 |
| 20260904155852 | 79 | 126 | 3.0 | 5.0 | 0.00 | 0.00 | 0.00 | 28 | 1020.9 |
| 20260904154831 | 79 | 124 | 3.0 | 4.0 | 0.00 | 0.00 | 0.00 | 29 | 1020.9 |
| 20260904153834 | 79 | 77 | 4.0 | 5.0 | 0.00 | 0.00 | 0.00 | 29 | 1020.9 |
| 20260904152835 | 78 | 139 | 2.0 | 2.0 | 0.00 | 0.00 | 0.00 | 29 | 1020.8 |
| 20260904151852 | 76 | 144 | 2.0 | 4.0 | 0.00 | 0.00 | 0.00 | 31 | 1020.8 |
| 20260904150819 | 75 | 131 | 5.0 | 9.0 | 0.00 | 0.00 | 0.00 | 32 | 1020.8 |
| 20260904145822 | 74 | 167 | 2.0 | 3.0 | 0.00 | 0.00 | 0.00 | 33 | 1020.8 |
| 20260904144825 | 74 | 174 | 2.0 | 2.0 | 0.00 | 0.00 | 0.00 | 33 | 1020.7 |
| 20260904143825 | 74 | 185 | 2.0 | 2.0 | 0.00 | 0.00 | 0.00 | 34 | 1020.7 |
| 20260904142816 | 75 | 127 | 3.0 | 4.0 | 0.00 | 0.00 | 0.00 | 34 | 1020.8 |
| 20260904141825 | 75 | 3 | 3.0 | 3.0 | 0.00 | 0.00 | 0.00 | 31 | 1020.7 |
| 20260904140826 | 73 | 20 | 3.0 | 4.0 | 0.00 | 0.00 | 0.00 | 33 | 1020.7 |
| 20260904135846 | 73 | 315 | 1.0 | 2.0 | 0.00 | 0.00 | 0.00 | 30 | 1020.5 |
| 20260904134826 | 70 | 174 | 3.0 | 3.0 | 0.00 | 0.00 | 0.00 | 32 | 1020.4 |
| 20260904133826 | 68 | 215 | 2.0 | 3.0 | 0.00 | 0.00 | 0.00 | 36 | 1020.4 |
| 20260904132826 | 67 | 212 | 1.0 | 2.0 | 0.00 | 0.00 | 0.00 | 36 | 1020.2 |
| 20260904131827 | 66 | 181 | 1.0 | 2.0 | 0.00 | 0.00 | 0.00 | 36 | 1020.2 |
| 20260904130848 | 65 | 232 | 2.0 | 3.0 | 0.00 | 0.00 | 0.00 | 35 | 1020.2 |
| 20260904125827 | 63 | 277 | 2.0 | 3.0 | 0.00 | 0.00 | 0.00 | 35 | 1020.2 |
| 20260904124827 | 61 | 264 | 1.0 | 1.0 | 0.00 | 0.00 | 0.00 | 41 | 1020.2 |
| 20260904123848 | 61 | 256 | 1.0 | 2.0 | 0.00 | 0.00 | 0.00 | 44 | 1020.1 |
| 20260904122828 | 61 | 199 | 0.0 | 1.0 | 0.00 | 0.00 | 0.00 | 44 | 1020.2 |
| 20260904121847 | 61 | 339 | 0.0 | 0.0 | 0.00 | 0.00 | 0.00 | 43 | 1020.1 |
| 20260904120829 | 62 | 269 | 1.0 | 1.0 | 0.00 | 0.00 | 0.00 | 42 | 1020.0 |
| 20260904115838 | 63 | 221 | 1.0 | 2.0 | 0.00 | 0.00 | 0.00 | 40 | 1019.9 |
| 20260904114858 | 61 | 186 | 2.0 | 2.0 | 0.00 | 0.00 | 0.00 | 39 | 1019.8 |
| 20260904113837 | 61 | 272 | 0.0 | 0.0 | 0.00 | 0.00 | 0.00 | 41 | 1019.7 |
| 20260904112850 | 61 | 255 | 1.0 | 1.0 | 0.00 | 0.00 | 0.00 | 42 | 1019.7 |
| 20260904111838 | 62 | 247 | 1.0 | 2.0 | 0.00 | 0.00 | 0.00 | 43 | 1019.7 |
| 20260904110838 | 62 | 254 | 1.0 | 1.0 | 0.00 | 0.00 | 0.00 | 43 | 1019.7 |
| 20260904105839 | 62 | 256 | 1.0 | 1.0 | 0.00 | 0.00 | 0.00 | 44 | 1019.7 |
| 20260904104919 | 63 | 266 | 1.0 | 1.0 | 0.00 | 0.00 | 0.00 | 43 | 1019.3 |
| 20260904103840 | 63 | 248 | 1.0 | 1.0 | 0.00 | 0.00 | 0.00 | 43 | 1019.4 |
| 20260904102839 | 63 | 229 | 1.0 | 1.0 | 0.00 | 0.00 | 0.00 | 40 | 1019.3 |
| 20260904101839 | 64 | 293 | 1.0 | 2.0 | 0.00 | 0.00 | 0.00 | 40 | 1019.2 |
| 20260904100840 | 65 | 267 | 1.0 | 1.0 | 0.00 | 0.00 | 0.00 | 37 | 1019.1 |
| 20260904095900 | 66 | 0.0 | 0.0 | 0.00 | 0.00 | 0.00 | 37 | 1019.1 | |
| 20260904094839 | 68 | 315 | 1.0 | 1.0 | 0.00 | 0.00 | 0.00 | 35 | 1019.0 |
| 20260904093901 | 69 | 190 | 2.0 | 3.0 | 0.00 | 0.00 | 0.00 | 32 | 1018.9 |
| 20260904092850 | 68 | 260 | 2.0 | 3.0 | 0.00 | 0.00 | 0.00 | 32 | 1018.9 |
| 20260904091831 | 67 | 279 | 2.0 | 3.0 | 0.00 | 0.00 | 0.00 | 34 | 1018.9 |
| 20260904090830 | 66 | 107 | 0.0 | 0.0 | 0.00 | 0.00 | 0.00 | 38 | 1018.9 |
| 20260904085831 | 65 | 267 | 1.0 | 1.0 | 0.00 | 0.00 | 0.00 | 40 | 1018.8 |
| 20260904084851 | 65 | 249 | 1.0 | 1.0 | 0.00 | 0.00 | 0.00 | 41 | 1018.8 |
| 20260904083832 | 65 | 216 | 1.0 | 1.0 | 0.00 | 0.00 | 0.00 | 42 | 1018.8 |
| 20260904082852 | 66 | 0.0 | 0.0 | 0.00 | 0.00 | 0.00 | 42 | 1018.8 | |
| 20260904081852 | 67 | 286 | 1.0 | 1.0 | 0.00 | 0.00 | 0.00 | 41 | 1018.8 |
| 20260904080832 | 67 | 301 | 1.0 | 2.0 | 0.00 | 0.00 | 0.00 | 40 | 1018.8 |
| 20260904075829 | 67 | 292 | 1.0 | 2.0 | 0.00 | 0.00 | 0.00 | 40 | 1018.7 |
| 20260904074817 | 67 | 323 | 2.0 | 3.0 | 0.00 | 0.00 | 0.00 | 40 | 1018.7 |
| 20260904073818 | 67 | 306 | 3.0 | 5.0 | 0.00 | 0.00 | 0.00 | 40 | 1018.8 |
| 20260904072818 | 66 | 290 | 2.0 | 3.0 | 0.00 | 0.00 | 0.00 | 40 | 1018.8 |
| 20260904071818 | 0 | 164 | 1.0 | 2.0 | 0.00 | 0.00 | 0.00 | ||
| 20260904070818 | 67 | 297 | 1.0 | 2.0 | 0.00 | 0.00 | 0.00 | 41 | 1019.0 |
| 20260904065819 | 67 | 296 | 1.0 | 2.0 | 0.00 | 0.00 | 0.00 | 40 | 1019.1 |
| 20260904064818 | 67 | 242 | 1.0 | 1.0 | 0.00 | 0.00 | 0.00 | 42 | 1019.1 |
| 20260904063819 | 66 | 273 | 1.0 | 1.0 | 0.00 | 0.00 | 0.00 | 42 | 1019.1 |
| 20260904062819 | 67 | 285 | 1.0 | 1.0 | 0.00 | 0.00 | 0.00 | 42 | 1019.2 |
| 20260904061828 | 69 | 0.0 | 0.0 | 0.00 | 0.00 | 0.00 | 40 | 1019.2 | |
| 20260904060819 | 69 | 202 | 4.0 | 4.0 | 0.00 | 0.00 | 0.00 | 39 | 1019.3 |
| 20260904055819 | 71 | 187 | 3.0 | 5.0 | 0.00 | 0.00 | 0.00 | 38 | 1019.3 |